Volver al catálogo

COSMOS 886 DEB *

ActivoLEO
NORAD 19425·DEBRIS·🇷🇺 Russia

Lanzado Dec 27, 1976 desde Baikonur Cosmodrome

Loading…

Próximos Pases (próximas 24 horas)

TLE

ActualizadoSource: Space-Track

Época: Sep 13, 2026, 22:51 UTC

1 19425U 76126CC  26256.95276824  .00000320  00000-0  13925-2 0  9994
2 19425  66.2207 247.6811 0325224 141.5579 248.0165 12.77021623626444

Sigue COSMOS 886 DEB * en tiempo real con AllMySat

Download on the App Store